Location: Innsbruck
(47.2657°N, 11.3914°E)
Time: 11:10:09
(UTC+01:00)

XW-2F - Pass Details

Date: 10 December 2021
Orbit: 495 x 515 km, 97.5° (Epoch: 15 January)

Event Time Altitude Azimuth Distance (km) Brightness Sun altitude
Rises 18:34:01 0° 205° (SSW) 2,610 ? -21.0°
Reaches altitude 10° 18:36:39 10° 225° (SW) 1,734 ? -21.5°
Maximum altitude 18:39:12 17° 268° (W) 1,341 ? -21.9°
Drops below altitude 10° 18:41:46 10° 311° (NW) 1,751 ? -22.3°
Sets 18:44:27 0° 332° (NNW) 2,647 ? -22.8°
